Wind_Speed
10 11 11 11 11 10 10 10 10 10 10 10 10 10 10 10 10 11 11 11 11 11 11 11 12 12 12 13 13 13 13 12 12 11 10 13 15 12 12 13 13 12 12 12 12 12 12 11 11 10 11 11 11 11 12 13 13 14 16 18 18 17 14 12 12 14 16 15 16 16 18 20 19 19 22 24 24 24 24 23 22 21 20 20 18 18 18 19
12 12 13 12 12 12 12 12 12 12 12 12 12 12 12 12 12 12 12 12 12 13 13 13 13 13 14 14 14 14 15 14 13 13 13 15 16 15 14 15 15 14 14 14 14 14 14 13 13 13 13 13 13 13 14 14 15 16 17 20 20 16 14 12 13 15 16 18 18 18 19 21 20 20 23 26 25 24 25 22 22 22 19 19 19 19 19 19
14 14 14 14 14 14 14 14 14 14 14 14 14 14 14 14 14 14 14 14 14 14 14 14 14 15 15 15 15 16 16 16 15 14 15 15 16 17 17 16 17 17 16 16 16 16 16 16 16 16 15 15 15 15 16 16 17 18 20 22 19 16 16 14 14 16 17 20 20 19 20 21 20 22 25 26 27 27 26 22 22 23 19 18 21 21 21 20
15 15 15 16 15 15 15 15 15 16 16 16 16 16 16 16 16 16 16 16 15 15 15 15 15 16 16 16 16 17 17 17 16 16 17 16 17 17 18 17 17 18 18 18 18 18 18 18 19 19 18 18 17 17 17 17 19 22 22 23 20 19 21 16 15 18 18 21 23 22 22 22 21 24 27 27 30 29 24 21 22 24 22 21 24 25 24 23
16 17 17 17 17 17 17 17 17 17 17 17 18 18 18 18 18 18 18 18 18 17 17 17 17 17 17 17 17 18 18 16 15 16 16 16 17 17 17 17 17 17 18 19 19 19 20 21 21 21 21 20 19 19 18 17 20 25 25 23 21 22 24 19 16 20 20 22 25 24 24 24 23 25 27 27 31 27 22 23 23 24 25 25 26 27 27 26
18 18 18 18 18 18 18 18 18 18 19 19 19 19 19 19 19 20 20 20 20 19 19 19 19 19 18 19 18 19 19 14 13 15 14 14 15 14 15 15 16 16 17 18 19 21 22 22 23 22 23 22 22 21 20 19 21 26 27 24 22 23 26 23 20 22 23 25 25 24 26 26 25 26 27 29 30 24 21 24 24 23 23 25 26 26 27 26
19 19 19 19 19 19 19 19 19 19 20 20 20 21 21 21 21 21 21 21 21 21 21 21 21 21 21 21 20 22 22 17 15 18 17 16 16 15 16 16 18 19 19 20 21 22 23 23 23 23 24 24 23 23 22 22 23 27 28 26 25 25 27 25 25 26 25 26 26 26 28 27 25 27 31 31 28 22 20 21 21 20 21 23 24 24 26 26
21 21 21 21 21 21 21 21 21 21 21 21 21 22 22 22 22 23 23 23 23 23 23 22 23 22 22 23 23 25 24 18 18 21 21 20 19 19 19 20 21 21 21 21 22 22 23 23 23 22 24 24 24 25 24 25 26 28 28 27 28 28 27 26 28 28 28 28 28 29 30 28 26 29 36 34 24 19 18 20 19 19 22 24 24 24 25 25
22 23 23 23 23 23 23 23 23 23 23 23 23 23 24 24 24 24 24 24 24 24 24 24 24 24 24 24 25 28 24 17 19 21 21 21 20 20 20 21 22 22 21 21 21 22 22 22 21 22 24 24 26 26 26 27 28 28 28 30 31 31 29 28 29 30 30 31 31 32 31 29 28 32 40 33 22 17 17 21 21 21 23 24 24 24 24 24
24 24 24 24 24 24 24 24 24 24 25 25 25 25 25 26 26 26 26 26 26 26 25 26 25 25 26 25 28 30 22 17 21 21 21 21 20 20 21 22 23 22 22 23 23 23 23 22 22 23 24 25 27 28 28 29 30 30 31 33 33 33 32 31 32 31 32 32 32 34 33 31 30 34 40 31 22 21 20 23 25 25 24 23 23 24 24 25
25 25 25 26 25 25 25 25 25 26 26 26 26 26 27 27 28 28 28 28 27 28 27 27 27 27 28 28 32 31 22 20 24 23 23 22 21 22 23 24 25 24 25 25 25 25 25 25 24 24 23 25 27 28 29 30 31 31 32 35 35 35 35 34 34 33 35 35 34 36 36 33 32 37 40 32 27 27 26 26 27 28 27 25 25 26 27 27
27 27 27 27 27 27 26 26 26 27 27 27 27 27 28 28 29 29 29 29 29 30 29 29 30 29 30 32 33 29 25 25 26 25 25 24 24 26 27 28 27 28 28 28 28 28 28 27 27 25 24 26 27 28 29 30 31 31 33 36 37 37 37 36 35 35 36 36 34 36 37 36 36 39 39 33 31 31 31 31 30 30 29 28 29 30 29 29
29 29 29 29 29 28 28 28 28 28 28 28 28 28 29 29 29 30 30 30 30 31 31 31 31 31 33 34 31 28 28 28 27 26 24 24 26 28 28 29 29 30 30 30 30 30 29 29 29 28 26 27 28 29 31 31 32 33 34 38 39 40 39 35 35 36 37 37 35 35 38 40 39 39 37 34 34 35 36 35 33 33 32 32 32 33 32 30
29 30 30 30 30 29 30 30 30 30 30 30 30 30 30 30 31 31 31 31 31 32 32 32 32 32 35 33 29 30 29 28 28 26 25 26 28 29 29 30 31 31 31 32 32 31 31 30 29 28 27 28 29 31 33 34 34 35 36 38 39 40 40 36 34 38 39 38 37 35 40 44 42 39 37 35 35 37 39 39 38 37 35 34 34 34 34 31
28 28 29 29 29 29 29 29 30 30 30 31 31 32 32 32 33 32 32 33 32 33 32 33 33 34 37 34 30 31 30 27 26 25 26 27 27 29 30 31 31 31 31 31 31 31 30 29 29 28 27 28 29 32 35 34 34 35 36 38 38 39 40 37 33 36 40 40 40 38 42 47 44 39 37 37 39 41 43 43 41 39 36 35 35 35 35 34
27 27 28 28 28 28 28 28 28 28 29 30 30 31 31 32 33 33 34 34 35 35 35 35 35 35 38 35 31 30 28 25 24 24 26 26 27 28 30 31 31 31 31 31 31 30 30 29 27 26 26 26 29 33 33 32 34 36 37 37 37 38 39 38 34 35 40 43 44 42 44 49 47 42 39 40 42 44 44 44 42 40 38 37 37 37 37 36
28 27 28 28 27 27 27 27 27 27 27 28 29 29 29 30 31 32 33 34 35 36 36 37 37 38 40 36 33 31 28 27 26 25 25 25 26 28 29 30 30 29 29 28 29 30 31 29 27 26 25 27 32 34 29 29 35 38 37 38 37 36 37 39 39 36 38 45 47 46 49 54 51 45 43 41 42 45 45 45 44 42 41 41 40 39 39 38
28 28 28 28 28 28 27 27 27 26 26 27 27 27 27 28 28 30 31 32 33 34 35 36 36 38 40 35 33 31 28 28 27 26 26 26 27 28 28 28 28 28 28 27 28 29 28 27 25 24 24 29 35 36 31 30 36 38 36 37 38 38 38 40 42 38 38 45 49 50 53 56 53 49 46 42 42 45 46 46 46 45 44 43 41 41 40 38
29 29 28 28 28 28 28 28 27 27 26 26 27 27 27 28 28 29 29 30 31 31 33 33 33 35 37 33 31 32 31 31 32 31 30 29 31 32 32 32 32 33 33 33 33 32 30 28 28 26 29 36 38 38 36 35 37 37 36 37 39 41 42 42 43 40 38 45 49 50 54 56 53 49 46 43 42 44 47 47 46 45 44 42 41 41 39 37
30 29 29 29 29 28 29 29 28 28 27 26 26 27 28 29 29 29 30 31 30 31 32 33 33 34 35 32 30 30 31 32 34 34 33 33 34 36 36 36 38 37 36 36 36 35 34 35 36 36 38 40 39 38 38 37 35 35 36 38 40 43 45 43 43 41 40 47 52 50 52 54 51 48 45 42 40 42 44 44 45 44 42 40 39 39 38 36
30 30 30 30 30 30 30 29 29 29 29 29 28 28 29 30 31 32 34 34 32 32 33 33 34 37 35 31 28 28 30 32 33 34 33 33 35 37 39 40 40 39 36 35 35 35 37 40 41 40 39 39 38 37 38 37 35 35 37 39 41 43 46 46 43 41 40 46 53 49 51 54 50 47 44 41 41 41 41 42 43 42 40 40 39 39 38 36
29 29 30 30 30 30 30 30 30 30 30 30 29 30 30 30 32 34 37 39 37 35 35 35 36 39 35 30 28 28 31 34 34 33 31 32 35 38 41 41 41 40 37 35 36 38 41 44 42 37 36 36 35 35 36 36 35 35 36 39 43 43 47 49 43 39 39 43 49 49 53 57 52 49 47 44 44 42 38 39 39 40 40 39 38 38 38 37
28 28 29 29 29 29 29 29 29 29 29 30 30 29 29 30 32 34 37 42 43 39 37 37 38 40 36 32 31 31 35 37 35 33 30 32 35 36 40 42 41 41 39 37 39 43 45 43 38 34 34 36 36 34 33 34 36 38 39 41 45 44 45 49 45 40 40 42 46 48 55 62 55 49 46 40 40 39 36 36 36 36 37 37 36 34 33 33
27 27 27 28 28 28 28 28 28 27 28 28 29 28 29 30 31 33 36 41 47 44 39 39 39 40 36 33 32 33 37 38 36 34 31 33 35 35 40 41 40 41 41 39 41 46 48 42 38 37 39 40 39 38 35 36 41 44 44 43 45 44 42 46 46 42 41 42 41 42 52 59 46 34 37 38 40 42 37 33 31 31 32 30 27 22 20 22
24 25 25 26 27 27 27 27 27 26 27 27 27 27 28 29 30 33 35 39 47 47 41 39 39 37 34 33 34 35 38 38 36 35 33 34 35 36 39 38 39 41 40 39 41 47 48 40 38 41 41 40 41 41 37 36 43 47 44 40 41 42 41 42 40 38 38 33 29 27 29 37 35 31 40 45 41 36 29 26 29 30 24 17 15 16 17 19
23 23 23 24 25 26 26 27 26 26 27 26 26 27 27 29 29 31 34 38 44 44 37 31 29 27 25 25 26 29 33 34 31 32 33 32 32 34 36 37 38 38 37 37 39 44 43 36 35 38 38 37 38 39 35 34 41 46 41 36 36 37 38 37 34 31 28 22 24 22 13 25 50 51 42 38 30 24 22 21 25 21 11 7 12 21 23 19
26 25 26 26 26 26 26 26 25 26 27 26 26 26 27 28 28 29 30 28 28 28 21 14 14 17 18 15 15 20 23 20 18 20 22 22 24 28 32 36 35 34 36 34 34 38 37 32 32 33 32 32 33 34 32 29 35 43 39 34 33 33 34 33 30 27 27 29 31 26 14 19 48 51 32 26 22 16 15 15 14 9 7 11 16 23 23 16
27 27 29 29 29 30 29 28 27 29 28 27 27 26 27 28 27 28 23 11 10 13 9 6 7 10 12 11 12 15 17 14 11 13 15 15 20 24 28 32 31 33 34 35 38 39 35 33 33 33 32 32 32 32 31 27 31 37 35 33 31 31 32 31 30 27 27 32 23 13 8 10 36 52 34 23 15 7 9 7 2 3 14 26 25 21 17 16
29 29 30 30 33 33 31 30 29 30 31 30 28 27 27 26 26 26 17 7 9 12 10 11 12 11 13 15 16 17 18 18 17 18 19 19 22 24 26 26 26 30 32 35 42 41 35 35 36 36 35 33 33 32 32 30 30 32 31 32 30 28 30 28 29 28 24 25 14 9 10 8 31 51 28 10 8 6 9 4 3 6 19 29 27 21 17 22
32 33 32 33 35 34 32 30 27 30 32 30 29 28 27 25 24 19 10 11 12 11 13 15 14 14 16 19 20 21 21 22 21 21 21 22 23 24 25 25 25 29 31 33 39 39 36 37 38 37 35 33 33 33 34 31 30 30 30 32 31 29 31 27 28 25 15 17 19 18 21 14 18 24 8 3 7 6 5 7 5 20 24 22 22 27 30 33
32 33 34 36 36 33 34 30 26 28 29 29 30 29 27 25 22 12 9 15 17 15 19 20 17 17 19 21 21 22 23 23 22 20 20 21 23 24 25 25 25 27 31 35 37 37 36 37 37 37 33 31 32 32 34 33 31 31 29 31 27 22 21 17 17 13 5 11 16 14 17 19 20 14 4 3 5 3 9 10 20 29 22 16 21 35 44 40
33 32 33 35 36 33 33 30 28 28 28 28 28 28 28 22 18 21 21 19 12 6 9 11 11 13 15 18 18 17 18 18 17 17 18 21 23 26 26 25 25 24 28 32 33 35 38 38 35 33 32 30 28 28 31 31 31 32 32 30 18 9 8 5 4 3 7 17 17 8 6 19 37 41 31 28 25 22 25 28 29 23 16 18 27 37 38 26
35 34 32 33 35 34 32 31 30 30 29 29 27 27 27 16 15 27 30 23 12 5 6 7 8 8 9 12 14 14 17 18 19 21 24 27 30 31 28 28 28 26 28 32 33 34 36 37 35 32 32 32 29 30 30 31 31 32 33 29 17 6 2 3 4 3 9 21 22 17 14 18 35 46 42 41 39 33 31 28 26 26 30 36 33 25 16 11
36 35 34 34 34 33 32 31 30 28 29 31 29 27 25 19 22 29 28 26 23 20 20 21 20 19 19 21 22 23 24 24 24 25 27 29 31 32 31 30 28 28 32 33 33 31 25 28 34 31 30 32 32 30 29 30 31 32 34 30 25 21 12 5 6 6 8 14 14 13 13 12 21 32 34 35 36 35 33 33 37 41 42 36 22 9 7 11
37 37 36 36 35 33 32 31 29 29 30 32 29 26 28 31 34 32 29 30 29 27 28 28 28 29 30 32 30 28 26 23 22 23 25 28 31 33 33 31 29 29 30 28 28 26 23 30 37 29 25 28 28 26 25 26 28 32 32 28 31 36 31 21 19 21 15 10 9 13 17 28 40 48 51 49 51 51 46 45 42 36 28 19 12 12 17 20
39 39 39 39 38 34 32 31 30 30 32 33 31 33 39 41 36 31 28 26 25 25 25 24 25 27 29 29 27 24 22 22 22 23 26 29 32 35 36 33 30 29 30 29 28 25 23 32 38 30 24 23 21 21 22 23 25 26 26 29 34 38 38 30 23 25 18 9 15 22 26 39 46 51 57 53 50 46 39 37 30 20 17 15 17 23 23 20
43 43 43 43 40 35 34 33 31 31 31 33 35 41 46 46 42 38 34 31 29 27 24 24 25 25 22 20 19 17 15 17 19 21 25 27 27 30 32 31 30 31 31 31 33 32 28 34 42 40 33 29 27 26 24 26 28 28 28 31 32 28 30 27 12 9 11 8 15 25 32 36 30 31 40 40 40 38 30 27 24 22 23 23 25 25 17 13
46 46 47 47 42 38 37 35 33 33 32 33 39 45 47 47 47 46 43 41 38 34 32 31 30 27 25 24 24 23 20 21 19 18 21 22 22 23 22 22 24 27 30 29 30 32 31 31 39 45 40 34 34 33 28 29 30 32 35 36 29 19 18 21 12 4 8 8 9 18 30 35 34 39 43 42 45 46 38 33 32 31 29 26 23 19 15 14
46 46 48 48 42 38 37 35 34 34 34 38 43 47 49 50 49 48 47 46 43 40 39 38 35 33 33 34 34 32 29 29 26 22 21 20 20 21 18 17 17 18 22 24 25 31 31 26 30 43 44 36 36 37 35 33 31 31 35 37 36 30 22 20 17 11 9 8 9 12 16 22 37 51 53 47 44 43 41 41 38 33 29 26 25 24 28 31
43 43 48 47 40 36 34 33 34 36 38 44 48 50 52 53 52 51 49 47 45 43 43 43 40 39 40 41 40 38 36 34 32 32 31 29 29 30 28 27 27 25 25 26 26 29 30 26 28 39 42 37 36 38 38 37 35 33 35 36 38 38 32 24 21 22 19 9 6 8 10 20 37 50 55 53 47 41 38 36 35 35 36 38 39 40 45 48
40 41 46 44 38 35 33 32 35 38 42 47 49 51 52 52 52 52 50 47 45 43 42 42 41 42 43 42 41 40 36 35 36 36 37 39 40 39 40 40 39 38 37 36 33 29 26 25 28 33 37 40 43 44 42 42 41 38 35 35 36 37 34 21 14 26 32 22 15 13 10 19 36 47 55 58 55 50 43 35 39 47 49 49 49 50 56 58
39 41 43 40 36 34 32 32 35 39 43 47 48 49 48 49 50 50 48 46 45 43 42 41 42 44 44 43 44 42 38 38 41 39 39 42 42 41 42 42 40 39 38 38 38 38 37 35 33 35 41 47 49 48 46 44 44 40 34 32 32 32 34 26 16 23 31 28 28 25 16 20 35 47 52 53 54 56 54 50 53 56 56 54 54 57 62 62
37 38 37 36 35 32 30 32 35 37 42 44 45 45 45 46 47 48 47 45 43 42 42 43 44 44 44 44 43 41 40 41 43 42 42 43 44 43 41 38 37 36 36 38 37 37 38 34 30 32 38 44 46 46 46 45 44 42 39 39 38 37 41 42 35 30 27 24 24 20 13 15 24 36 45 48 50 55 57 58 59 60 62 62 62 64 67 66
35 36 35 34 32 29 31 35 36 38 40 41 42 43 44 44 45 47 46 44 42 42 42 43 43 43 43 42 40 41 40 37 38 40 40 39 41 42 38 34 33 34 35 37 36 34 34 31 26 22 21 25 30 31 33 38 43 46 48 48 49 51 49 45 42 36 26 27 30 20 12 19 25 33 43 47 51 57 61 64 68 69 70 69 67 66 66 60
33 34 34 34 32 32 36 38 38 39 39 40 43 45 45 45 46 47 46 45 44 43 43 43 42 42 42 41 41 43 42 39 39 40 40 40 41 41 38 35 35 35 36 37 37 38 39 39 34 24 14 11 16 20 25 29 31 34 39 42 45 50 49 45 44 35 22 28 39 29 23 37 44 43 48 52 56 62 65 68 72 72 70 68 65 61 59 53
32 33 33 33 33 35 39 39 39 41 41 40 43 44 45 47 47 46 46 45 44 43 44 44 42 41 43 43 43 44 44 44 42 43 44 45 44 41 39 37 34 34 34 34 37 39 41 42 40 37 33 30 33 39 42 40 34 31 32 33 34 37 40 42 41 37 32 35 41 39 39 48 49 46 50 55 56 59 62 65 68 67 65 66 62 55 54 55
31 33 33 31 30 30 35 37 39 42 43 42 42 43 45 46 45 44 44 44 43 42 42 43 42 42 42 42 43 43 44 43 42 43 44 44 44 43 42 40 38 38 37 36 38 39 39 40 41 42 43 44 46 49 50 50 49 46 44 43 43 43 45 45 43 47 48 38 33 40 47 50 49 48 51 54 54 55 57 58 60 60 59 61 60 57 56 58
32 33 32 30 29 29 31 33 35 39 41 41 43 44 45 46 44 42 42 43 43 41 40 41 41 40 40 39 39 39 39 39 39 40 40 40 42 44 44 44 43 43 42 41 42 41 37 38 44 47 46 46 48 49 50 52 53 53 52 52 52 52 52 52 54 57 55 45 41 47 51 53 55 55 54 53 52 51 51 52 54 55 55 57 60 62 62 63
32 33 32 31 33 34 34 34 34 36 37 38 41 43 43 45 45 43 41 41 41 41 40 41 40 39 39 38 37 37 37 36 35 35 36 37 36 37 40 42 41 41 41 41 42 38 31 29 33 37 39 39 38 39 42 46 48 50 52 52 53 53 54 56 59 59 58 58 59 59 57 58 58 54 50 50 51 52 54 55 55 56 57 59 62 65 68 70
32 34 34 33 35 36 36 36 35 36 36 37 41 44 43 43 44 43 41 39 37 34 33 33 35 37 37 35 34 35 35 33 31 29 29 29 28 27 28 28 30 31 30 29 31 28 23 22 23 27 32 31 29 32 34 34 36 38 40 41 44 47 51 54 55 56 57 60 60 59 58 55 49 46 47 50 53 55 55 56 58 59 61 63 65 67 69 69
33 34 35 35 36 36 36 37 36 37 39 38 41 43 43 45 47 46 46 44 42 39 34 29 28 29 31 32 35 36 34 33 33 32 31 31 30 29 28 27 28 30 29 29 29 28 30 32 32 32 32 31 32 33 33 34 36 35 36 39 40 42 45 46 48 49 51 53 53 51 46 39 35 40 45 48 49 50 50 53 55 55 56 57 57 58 58 59
34 35 35 36 38 37 37 38 37 38 41 40 40 40 39 42 45 46 46 45 43 44 45 43 41 39 38 38 38 40 40 40 39 39 38 36 36 36 37 37 37 39 42 43 43 42 43 42 41 36 32 34 39 41 41 38 30 30 43 51 46 45 48 49 50 51 50 49 46 41 32 26 27 33 36 38 40 42 43 45 46 47 48 47 46 46 48 51
Wind_Direction
255 256 256 257 257 257 258 259 257 257 259 258 257 256 254 253 253 251 251 250 251 251 251 252 254 257 257 258 259 258 258 256 255 255 251 258 263 262 260 260 262 262 263 265 266 268 269 271 272 272 273 272 272 275 275 275 277 275 273 273 274 277 285 288 280 277 281 283 281 281 285 285 287 290 289 288 288 291 291 291 293 294 298 302 299 289 281 276
258 258 259 259 259 260 261 261 261 263 263 262 262 263 262 262 261 259 258 257 256 256 255 254 256 257 258 258 260 260 262 262 262 262 258 261 267 267 266 265 266 266 264 266 269 271 274 275 275 276 276 275 276 277 276 278 279 276 275 274 275 284 289 282 272 275 284 286 286 287 287 287 291 293 290 289 291 291 290 293 297 298 302 302 295 286 281 277
259 261 262 262 263 263 263 264 265 265 266 266 267 267 267 267 267 267 266 264 263 261 260 259 258 258 258 258 259 260 261 263 264 265 263 262 266 268 269 269 270 272 269 268 270 273 277 279 278 278 277 276 278 279 279 281 282 280 276 274 281 291 286 276 277 281 282 285 289 291 289 289 294 294 290 291 293 290 289 297 301 300 300 296 291 289 286 282
260 260 262 263 263 264 265 265 266 266 267 267 268 269 269 270 270 270 270 270 269 268 266 264 263 261 261 259 259 260 261 264 266 264 264 264 265 267 269 270 271 272 272 270 270 274 279 282 282 282 280 278 279 280 280 283 284 280 276 279 287 288 282 281 285 283 280 284 290 292 291 291 292 291 290 293 293 289 293 302 301 296 296 292 288 288 285 282
259 259 260 261 262 262 263 264 265 266 267 267 268 269 270 270 270 271 272 273 273 273 271 270 269 267 266 264 263 262 264 270 270 265 266 266 265 267 269 270 270 270 270 269 270 273 279 285 286 284 282 281 280 279 280 282 281 279 279 283 287 286 285 286 285 280 280 282 286 290 291 291 291 290 290 292 288 289 301 305 300 297 296 291 285 283 281 282
258 259 259 259 260 261 262 263 264 265 266 267 268 268 269 270 271 271 272 273 273 274 275 274 274 273 272 269 268 266 265 268 268 265 267 266 265 266 268 270 271 270 269 269 270 273 279 283 283 284 284 283 281 280 281 282 280 280 281 284 287 289 288 289 286 280 278 280 284 289 288 289 293 292 290 288 283 290 306 305 304 303 297 291 286 282 280 282
259 259 260 260 261 261 262 263 264 265 266 266 267 268 268 268 270 270 271 272 272 274 274 274 275 274 274 272 271 270 266 264 266 267 266 263 264 265 268 270 271 272 272 271 272 274 277 278 281 284 283 283 283 282 282 282 281 281 283 287 290 288 287 290 289 283 281 281 284 286 286 289 295 295 290 283 282 294 308 306 307 303 294 290 288 284 280 280
261 261 262 262 262 262 263 264 264 265 266 267 268 268 268 268 268 269 270 270 271 272 272 273 273 273 273 272 272 269 267 270 271 269 267 266 266 267 268 270 271 271 271 272 272 273 274 276 280 282 280 281 282 281 281 282 281 281 284 287 288 286 286 288 287 286 286 284 285 286 287 291 296 295 286 280 286 303 309 306 304 297 289 288 289 287 283 282
263 263 264 264 264 264 264 264 265 265 266 267 268 268 269 269 269 269 269 270 271 271 272 272 271 272 271 270 270 267 267 274 271 268 269 269 269 269 269 269 269 269 270 271 271 272 273 276 277 276 277 278 278 279 280 280 279 281 284 284 283 284 286 286 285 286 286 286 288 287 289 292 294 291 282 280 292 306 305 299 298 294 289 290 291 291 289 287
265 265 266 267 267 267 266 266 266 266 267 267 269 269 270 270 271 271 271 272 273 273 274 273 273 273 271 270 268 265 267 271 267 267 268 269 270 270 269 268 267 268 269 269 269 270 270 270 270 271 274 275 276 278 279 279 280 282 282 281 281 283 284 283 283 285 286 288 288 288 290 291 289 284 279 283 298 301 297 292 293 293 289 289 290 290 289 286
265 266 267 268 269 269 269 269 269 269 269 270 270 271 272 272 272 273 274 275 275 276 277 277 277 275 274 272 267 268 272 269 265 266 267 267 268 268 268 267 267 268 268 269 269 268 268 268 268 269 273 274 276 278 279 280 281 281 281 280 281 282 283 283 285 287 288 289 290 290 289 287 283 278 279 289 298 295 293 291 291 290 288 286 286 289 288 284
264 264 265 266 267 268 269 269 270 270 270 271 271 272 272 272 273 274 275 276 277 277 278 280 280 279 278 272 268 273 276 270 267 267 267 268 266 265 265 266 267 267 267 267 267 268 268 269 269 269 271 273 275 278 279 279 279 280 281 281 281 282 282 284 286 288 289 290 293 292 288 284 280 278 283 292 295 292 291 291 291 289 288 286 285 289 289 284
264 265 265 266 266 267 268 269 269 270 270 271 271 271 271 271 272 273 274 275 275 276 277 279 279 280 278 273 272 275 275 273 273 272 272 270 266 264 263 265 266 266 266 266 266 267 267 268 269 269 269 271 274 275 276 277 277 279 280 280 282 283 283 287 291 292 293 293 295 293 286 282 282 282 288 294 293 291 290 290 291 290 289 287 285 287 286 283
264 265 266 267 268 269 269 270 271 271 272 272 272 272 272 273 273 273 274 275 275 275 276 277 277 278 276 273 274 276 274 274 276 279 278 272 269 268 267 267 266 265 266 266 267 267 267 267 267 268 268 270 273 274 273 274 276 279 279 277 279 279 282 292 297 297 297 296 296 292 283 284 287 286 289 294 294 292 291 291 292 291 289 287 285 284 282 280
265 266 267 267 269 270 271 271 272 273 273 274 274 274 274 274 274 275 275 275 275 275 275 276 276 277 276 275 275 276 275 277 279 281 278 273 272 271 269 267 266 266 266 266 267 268 268 267 266 267 268 270 273 272 270 272 275 278 275 274 277 277 285 296 296 294 295 293 293 290 284 287 291 288 289 294 294 293 293 292 292 291 289 286 284 282 280 278
269 269 269 270 271 271 272 273 274 275 276 276 276 276 276 276 276 275 275 275 275 274 274 274 275 275 276 276 276 276 280 284 283 278 275 274 273 270 269 268 267 267 267 267 267 268 269 268 267 267 268 272 272 269 269 271 273 274 271 272 277 281 289 296 291 290 292 292 292 290 287 290 292 290 290 292 294 295 293 292 291 290 288 285 283 283 281 280
271 271 272 273 274 274 275 275 276 277 278 279 279 280 280 279 278 277 276 276 275 275 274 273 274 273 273 275 278 280 283 284 281 278 277 275 272 271 271 270 267 265 266 268 269 270 269 268 268 268 270 273 271 267 262 262 268 274 275 277 282 287 290 291 290 292 293 292 293 292 290 291 293 294 292 290 292 293 292 290 289 288 286 286 285 285 284 283
270 271 272 273 274 275 276 276 277 277 278 280 281 281 281 281 280 279 278 277 276 276 274 273 273 272 273 276 279 280 281 281 281 279 278 276 275 274 272 269 266 264 267 270 271 271 270 269 269 268 270 269 266 261 254 261 275 281 284 285 287 288 287 286 289 293 295 293 292 291 290 291 294 296 294 291 289 290 290 288 287 286 286 287 288 287 286 284
270 271 272 272 273 274 275 275 276 276 277 279 281 282 281 281 279 278 278 277 276 276 276 275 273 272 275 278 279 279 279 279 279 276 275 275 274 273 271 269 267 266 267 270 271 271 271 270 265 263 266 267 266 266 268 279 288 289 288 285 284 285 284 285 289 295 299 293 289 288 289 291 294 294 293 291 288 287 286 285 285 286 288 289 289 288 286 284
272 272 273 273 274 275 275 276 277 277 278 278 281 282 283 283 282 281 279 276 276 276 275 276 276 274 275 278 279 280 279 276 274 273 272 270 270 271 271 269 267 266 267 269 270 271 271 267 263 265 269 271 274 278 283 287 288 285 283 281 281 281 282 287 292 298 300 290 286 290 291 291 292 292 292 290 287 283 283 284 286 288 290 291 289 287 286 286
273 273 274 274 275 275 276 277 278 279 279 279 279 281 283 284 285 284 281 278 276 275 275 276 276 275 275 278 280 279 276 272 270 269 268 269 269 269 268 267 267 267 269 270 270 270 268 263 264 270 275 279 282 284 284 283 282 281 280 279 279 279 284 291 294 297 299 289 288 294 294 291 291 290 289 288 286 283 284 285 287 289 291 290 288 286 286 287
272 273 273 273 273 274 275 276 277 278 279 279 279 279 280 282 283 284 284 281 277 275 276 276 276 276 278 279 279 277 272 270 270 268 268 269 267 266 267 267 268 269 270 268 268 268 263 261 268 279 283 284 283 281 280 280 280 278 277 276 275 281 289 292 293 298 299 291 291 297 295 290 290 289 287 287 285 284 285 286 288 291 290 288 287 287 287 287
269 270 270 271 272 272 273 274 274 276 277 277 277 278 279 280 282 283 284 284 281 277 276 277 277 278 280 280 278 274 270 269 270 269 267 264 263 264 265 266 267 269 267 265 267 265 260 265 277 285 284 282 279 278 279 279 277 275 275 273 276 285 289 286 293 301 298 293 294 298 294 290 291 290 287 286 286 288 290 291 292 292 292 292 292 291 289 288
267 268 269 271 271 272 273 273 274 275 275 276 277 277 279 281 282 283 284 285 284 281 279 280 279 279 280 279 274 268 266 266 266 266 262 259 260 261 262 265 265 265 265 266 268 266 265 272 280 279 277 277 277 276 275 276 277 277 275 274 279 288 288 287 294 298 294 293 294 299 298 294 294 294 292 292 293 295 298 298 298 299 300 301 301 300 300 299
267 268 270 272 273 274 274 275 277 277 277 278 279 280 282 283 285 286 288 290 288 287 286 284 282 282 279 272 267 263 261 262 263 264 261 258 258 259 261 263 264 266 268 269 269 268 270 274 276 273 273 274 274 274 273 275 277 276 274 278 284 289 290 291 295 296 294 294 295 304 307 298 297 296 294 298 299 300 304 304 306 311 312 309 311 317 320 318
268 268 269 270 272 275 275 277 278 278 278 279 281 283 284 286 289 290 294 296 293 291 292 288 282 280 275 265 260 257 257 260 261 259 257 256 256 257 258 260 262 265 268 269 268 268 270 274 273 271 272 272 271 272 273 273 272 272 276 285 289 289 290 292 295 292 288 289 292 294 293 294 298 298 296 300 302 303 307 309 314 323 328 313 312 319 324 324
268 269 270 270 272 274 274 276 277 278 278 279 281 285 286 289 292 294 302 303 296 295 298 286 266 265 268 259 247 245 248 255 257 251 251 253 253 254 255 258 261 263 266 266 263 265 272 276 275 274 274 271 268 271 278 276 269 272 281 289 288 289 290 291 293 287 283 288 289 284 270 278 291 294 300 303 302 306 310 311 319 331 341 321 311 317 325 325
264 266 269 271 271 271 272 274 276 277 279 279 281 284 286 289 291 296 304 308 293 299 300 268 247 251 257 251 241 237 236 242 248 248 254 257 256 255 256 259 262 264 265 262 260 265 273 275 274 273 272 271 274 280 286 281 272 276 285 287 285 287 287 286 287 284 287 292 288 272 253 250 280 287 295 298 290 299 311 311 320 313 325 322 315 315 317 310
264 265 267 268 268 269 271 273 273 274 276 278 280 282 283 287 291 293 291 268 273 288 280 266 258 245 245 247 249 250 248 252 255 256 259 258 256 256 257 261 263 265 265 264 265 270 273 273 273 270 269 275 283 286 284 279 275 279 284 284 282 283 282 283 283 282 285 286 265 228 239 241 281 286 288 274 255 281 296 259 169 304 316 317 316 315 304 303
267 268 268 267 267 269 269 269 271 272 274 275 276 278 280 281 284 286 268 247 266 283 280 273 260 245 244 246 250 256 259 260 259 258 258 257 257 259 261 264 266 268 270 268 270 273 274 274 271 270 274 280 283 283 280 276 275 277 279 279 279 279 279 278 275 276 285 277 255 250 261 251 272 289 293 232 268 280 245 190 261 306 307 305 312 312 306 308
271 272 271 268 267 268 267 267 269 271 273 275 275 274 276 276 273 260 235 256 273 281 276 271 260 250 247 247 249 253 257 259 260 260 260 260 260 262 264 267 268 270 271 269 271 275 275 273 272 275 279 281 281 281 279 277 275 275 274 272 275 279 280 275 266 263 256 269 265 266 271 245 237 262 292 290 305 223 216 250 291 300 300 292 302 307 308 310
273 275 274 271 268 266 267 268 269 271 274 275 275 272 270 270 257 241 242 261 281 293 273 264 257 249 243 244 245 247 252 253 255 260 265 268 266 264 264 266 268 270 272 273 275 277 274 273 275 278 277 276 277 276 274 274 273 272 266 259 260 281 289 269 244 220 218 252 263 261 247 234 246 262 269 272 282 275 270 286 293 294 296 292 298 304 303 300
272 273 274 273 271 269 268 269 270 272 274 274 275 273 267 259 250 250 251 254 255 260 278 281 268 247 230 237 241 247 257 260 262 267 270 270 267 265 260 260 262 262 267 272 275 277 278 276 272 271 274 274 271 267 267 271 272 270 262 251 233 218 272 256 251 265 248 256 263 255 242 245 259 270 275 275 281 283 282 289 291 294 299 298 300 301 287 264
271 272 273 273 274 274 272 272 271 272 275 273 272 267 255 243 251 259 259 257 256 262 273 278 273 263 258 261 264 268 271 271 269 267 264 262 262 264 262 260 260 259 263 268 270 271 274 276 273 269 270 272 269 267 269 273 274 273 269 258 241 233 228 225 234 241 263 270 266 238 225 246 266 274 281 284 287 288 288 289 292 295 297 297 296 278 267 284
270 271 272 272 272 274 275 275 273 271 269 268 266 256 244 245 254 258 261 263 264 268 272 274 272 269 270 272 273 274 273 268 264 260 257 256 259 263 264 264 263 260 259 258 262 266 265 272 278 276 271 271 272 271 268 266 265 265 262 247 240 245 246 243 245 250 266 290 262 227 234 259 269 274 279 282 284 285 287 290 292 293 290 282 275 280 296 297
270 271 271 271 271 273 273 272 270 266 263 264 263 253 249 253 258 260 263 267 270 272 273 270 269 272 276 277 276 275 269 260 258 258 258 259 262 262 263 263 261 258 255 254 260 267 265 269 277 282 281 277 275 273 266 259 255 254 249 242 248 256 252 246 251 258 262 277 262 252 258 266 272 278 279 279 282 283 285 288 285 282 273 260 280 296 292 279
272 272 271 271 272 271 269 267 265 262 259 256 254 253 255 258 259 261 265 269 271 271 271 270 271 272 270 269 270 269 263 259 261 260 258 260 262 263 263 261 258 256 254 257 263 264 266 271 273 275 279 279 275 276 268 258 253 247 248 257 262 261 251 244 248 266 252 253 259 254 262 269 271 276 276 277 282 283 283 284 278 276 276 273 285 291 275 252
273 273 272 272 271 269 267 264 260 258 256 252 252 254 257 258 259 261 263 265 267 268 269 268 268 266 259 259 264 266 266 269 268 261 257 256 256 261 264 259 256 254 252 255 260 260 262 269 269 268 271 274 272 272 266 256 252 249 252 259 258 253 246 235 223 241 244 247 258 246 255 264 263 264 270 272 275 277 280 280 280 281 282 279 273 264 256 251
274 273 273 273 271 267 264 261 257 254 250 248 251 254 258 259 260 262 264 265 267 267 267 266 265 264 263 266 271 272 272 269 264 260 258 252 249 254 257 253 253 254 252 252 256 259 260 262 265 265 266 270 267 263 259 256 255 252 250 251 250 251 251 237 227 231 240 249 261 249 247 255 258 263 270 273 275 278 279 280 283 282 281 282 271 264 269 270
273 272 272 272 271 266 261 256 252 248 245 247 251 255 258 261 263 266 267 268 268 267 266 266 265 264 266 269 272 273 272 269 264 261 258 256 256 259 260 261 264 268 267 263 259 258 256 251 256 262 264 266 262 258 260 262 263 259 250 245 246 248 250 250 244 239 243 252 254 251 247 243 250 260 269 272 275 278 279 280 280 277 279 284 284 286 288 284
270 269 269 270 270 267 261 251 246 245 246 249 253 255 258 261 264 267 268 267 267 266 265 265 264 264 266 268 270 271 270 268 266 263 260 261 262 264 267 268 270 272 273 272 266 261 259 254 253 259 261 262 263 266 270 270 268 263 255 251 252 249 247 253 256 244 243 244 243 251 256 243 247 258 268 272 274 277 278 276 276 277 281 285 286 295 300 296
266 266 267 268 267 266 262 253 249 250 249 251 255 257 259 262 264 266 267 266 265 265 265 264 264 265 266 267 268 270 269 268 268 266 264 266 265 266 271 274 275 274 273 273 272 270 272 268 259 259 264 266 270 273 274 271 267 260 252 250 250 247 244 243 245 247 245 245 249 255 261 254 252 257 265 271 273 276 277 279 281 282 285 286 287 296 301 299
265 265 266 266 265 265 262 257 255 253 251 254 259 260 259 261 262 264 266 265 264 264 264 264 265 266 267 268 269 270 269 269 269 268 269 271 271 272 276 277 276 273 269 268 269 270 269 265 260 264 269 271 274 275 272 268 264 256 251 251 249 247 247 245 246 255 260 259 257 259 260 256 257 261 265 270 273 275 279 281 284 287 289 290 292 297 299 296
266 265 264 263 262 259 256 255 256 255 254 257 259 258 259 259 260 262 263 262 263 264 265 266 267 267 267 267 268 268 267 267 269 271 272 272 274 276 278 277 274 272 269 268 270 271 268 264 265 270 276 277 276 274 269 263 259 254 255 257 255 253 253 251 254 261 265 260 257 258 260 257 261 267 269 272 276 279 281 283 285 289 291 292 296 299 298 297
268 267 264 261 256 249 247 250 253 255 256 258 258 259 260 259 259 261 262 261 262 263 265 266 266 267 268 268 268 268 266 266 268 271 271 271 274 277 277 276 274 270 268 269 270 269 266 263 260 256 255 264 266 265 266 267 267 262 260 260 260 258 256 257 259 258 257 258 254 250 259 265 266 270 273 276 279 281 285 287 289 292 294 295 297 296 294 295
268 266 265 262 256 251 250 251 250 250 251 254 256 257 258 259 260 261 262 262 263 263 264 264 265 266 268 269 269 269 269 269 269 269 271 273 275 276 275 273 271 267 265 265 264 261 259 259 258 254 252 254 259 265 269 273 275 273 269 268 267 265 265 265 261 254 258 265 259 254 264 271 271 273 275 278 280 281 284 287 290 293 295 296 295 291 287 288
267 266 265 263 259 255 254 252 248 247 249 250 252 254 256 258 260 262 263 264 265 265 266 266 266 265 265 267 268 268 269 270 270 270 271 272 272 271 270 269 266 264 263 263 263 262 260 260 262 262 260 260 263 267 270 272 272 271 271 270 268 268 269 267 260 258 263 266 263 263 267 270 272 274 277 278 279 280 281 283 286 288 288 287 286 284 284 285
266 266 264 261 257 255 255 253 248 246 247 248 250 253 255 256 258 260 263 266 267 268 268 268 266 265 265 266 267 267 269 270 270 271 271 270 269 269 269 268 266 265 264 262 262 263 264 265 268 268 268 269 270 271 273 272 272 271 270 270 269 269 269 266 263 265 265 261 263 267 268 269 273 277 277 277 276 276 276 276 277 277 276 275 276 277 280 282
265 264 262 258 257 258 256 254 252 249 246 244 246 251 254 257 258 258 261 264 266 268 268 266 265 267 267 266 265 266 268 268 268 269 268 265 263 263 265 266 265 265 264 263 261 260 263 270 267 266 271 274 271 271 273 273 274 275 273 272 271 270 269 268 267 268 267 264 267 271 271 272 275 276 274 273 271 270 270 270 270 270 270 270 271 273 276 280
263 261 259 256 256 259 257 253 252 251 248 243 241 244 248 252 256 259 258 257 258 263 266 263 260 260 262 263 264 262 259 257 257 259 262 263 261 262 264 264 262 260 256 258 258 254 262 274 267 270 283 284 276 276 277 279 283 284 283 282 279 275 273 271 271 271 270 270 273 275 276 277 277 275 274 273 272 271 270 270 270 269 269 269 270 271 273 276
263 261 260 258 256 257 256 253 250 248 249 248 244 243 245 248 251 255 255 254 256 260 263 261 259 258 258 262 263 260 255 257 262 267 270 271 269 270 271 269 270 269 264 265 266 264 272 282 284 287 292 290 287 287 287 288 290 288 285 285 282 281 281 280 279 279 277 276 278 278 278 279 279 277 276 274 273 272 271 271 270 269 269 270 271 270 271 273
264 261 259 258 257 256 254 253 250 247 249 251 247 244 244 247 250 252 253 255 257 259 260 261 263 265 265 264 263 261 262 267 272 274 275 275 274 274 273 271 272 273 273 273 274 274 277 283 288 292 291 287 287 288 288 290 290 282 281 281 280 280 284 284 284 283 280 276 275 275 273 272 276 277 276 275 273 271 268 267 267 266 266 268 269 269 269 272
Height
3191 3191 3191 3191 3191 3191 3191 3191 3191 3191 3190 3190 3190 3189 3189 3189 3189 3189 3188 3188 3188 3188 3188 3187 3187 3187 3186 3186 3186 3185 3185 3185 3185 3185 3184 3183 3183 3183 3182 3182 3182 3182 3181 3181 3181 3180 3180 3179 3179 3179 3178 3178 3177 3177 3176 3176 3175 3175 3174 3172 3171 3171 3171 3170 3170 3168 3167 3167 3166 3166 3165 3164 3164 3163 3161 3160 3159 3159 3158 3157 3157 3157 3157 3156 3156 3155 3153 3153
3190 3190 3190 3190 3190 3190 3190 3190 3190 3189 3189 3189 3189 3188 3188 3188 3188 3188 3187 3187 3187 3187 3187 3186 3186 3186 3185 3185 3185 3184 3184 3184 3184 3184 3183 3182 3182 3182 3182 3181 3181 3181 3180 3180 3180 3179 3178 3178 3178 3178 3178 3177 3177 3176 3176 3175 3175 3174 3173 3171 3170 3170 3170 3170 3169 3168 3167 3165 3165 3165 3164 3162 3162 3162 3159 3157 3157 3156 3155 3155 3156 3155 3155 3154 3153 3152 3151 3151
3189 3189 3189 3189 3189 3189 3189 3189 3189 3188 3188 3188 3187 3187 3187 3187 3186 3186 3186 3186 3186 3186 3185 3185 3185 3185 3184 3184 3184 3183 3183 3183 3183 3182 3182 3182 3181 3181 3180 3180 3180 3180 3179 3179 3178 3178 3177 3177 3177 3177 3177 3176 3175 3175 3174 3174 3173 3172 3171 3169 3169 3170 3169 3169 3168 3167 3166 3164 3163 3163 3162 3161 3161 3159 3157 3155 3154 3153 3153 3154 3154 3153 3153 3153 3151 3150 3150 3149
3188 3187 3187 3187 3187 3187 3187 3187 3187 3187 3187 3186 3186 3186 3185 3185 3185 3185 3185 3184 3184 3184 3184 3184 3184 3183 3183 3183 3183 3182 3182 3182 3182 3181 3180 3180 3180 3179 3179 3179 3179 3178 3178 3178 3177 3176 3176 3176 3176 3175 3175 3174 3174 3173 3173 3173 3171 3169 3168 3167 3168 3168 3166 3167 3168 3166 3165 3163 3162 3162 3160 3159 3159 3157 3155 3154 3151 3149 3151 3153 3153 3151 3151 3151 3149 3148 3147 3147
3186 3186 3186 3186 3186 3186 3186 3186 3185 3185 3185 3185 3184 3184 3184 3184 3183 3183 3183 3183 3183 3182 3182 3182 3182 3182 3182 3182 3181 3181 3180 3180 3180 3179 3179 3179 3178 3178 3178 3177 3177 3177 3176 3176 3176 3175 3175 3174 3174 3173 3173 3172 3172 3171 3171 3171 3170 3166 3165 3166 3167 3166 3164 3166 3167 3164 3164 3162 3160 3160 3159 3157 3157 3155 3153 3152 3149 3147 3150 3152 3150 3149 3148 3147 3146 3145 3144 3144
3184 3184 3184 3184 3184 3184 3184 3184 3184 3183 3183 3183 3183 3182 3182 3182 3182 3181 3181 3181 3181 3181 3180 3180 3180 3180 3180 3180 3180 3179 3179 3179 3179 3178 3178 3178 3177 3177 3176 3176 3176 3175 3175 3174 3174 3174 3173 3172 3171 3171 3170 3170 3170 3169 3169 3169 3168 3164 3163 3164 3165 3164 3162 3163 3164 3162 3162 3160 3159 3159 3157 3156 3155 3153 3151 3149 3147 3147 3149 3149 3148 3147 3146 3144 3143 3143 3142 3142
3182 3182 3182 3182 3182 3182 3182 3182 3182 3181 3181 3181 3181 3181 3180 3180 3180 3179 3179 3179 3179 3179 3178 3178 3178 3178 3178 3178 3178 3177 3176 3178 3178 3176 3176 3176 3176 3176 3175 3175 3174 3174 3173 3173 3172 3172 3171 3170 3170 3170 3168 3168 3167 3167 3167 3166 3165 3162 3161 3162 3162 3161 3160 3160 3160 3159 3159 3158 3158 3157 3155 3154 3153 3151 3146 3144 3146 3148 3148 3147 3146 3145 3143 3141 3141 3141 3141 3140
3180 3180 3180 3180 3180 3180 3180 3180 3180 3179 3179 3179 3179 3178 3178 3178 3178 3177 3177 3177 3176 3176 3176 3176 3176 3176 3176 3175 3175 3174 3174 3176 3176 3175 3174 3174 3174 3174 3174 3173 3172 3172 3171 3171 3170 3170 3169 3168 3168 3168 3166 3166 3165 3164 3164 3163 3162 3160 3160 3160 3159 3158 3158 3158 3157 3156 3156 3155 3155 3154 3152 3152 3152 3148 3141 3140 3145 3147 3147 3145 3144 3143 3141 3140 3139 3139 3139 3138
3178 3178 3178 3178 3178 3178 3178 3178 3178 3177 3177 3177 3176 3176 3176 3175 3175 3175 3175 3174 3174 3174 3174 3174 3173 3174 3173 3173 3173 3170 3172 3175 3174 3172 3172 3172 3172 3172 3172 3171 3170 3170 3169 3169 3168 3167 3167 3167 3167 3166 3164 3164 3163 3162 3162 3161 3160 3159 3159 3157 3156 3156 3156 3156 3154 3154 3153 3152 3152 3150 3150 3150 3150 3146 3136 3137 3145 3146 3145 3143 3142 3141 3140 3139 3138 3137 3137 3136
3176 3176 3176 3176 3176 3176 3176 3176 3175 3175 3175 3174 3174 3174 3173 3173 3173 3173 3172 3172 3172 3172 3172 3171 3171 3171 3171 3171 3169 3167 3171 3173 3171 3170 3170 3170 3171 3170 3170 3168 3168 3167 3167 3166 3166 3165 3165 3164 3164 3163 3163 3162 3161 3160 3160 3159 3157 3157 3156 3154 3154 3153 3154 3153 3152 3152 3150 3150 3149 3147 3147 3147 3147 3142 3133 3136 3144 3143 3143 3141 3139 3139 3138 3138 3136 3135 3134 3133
3173 3173 3173 3173 3173 3173 3173 3173 3173 3173 3173 3172 3172 3171 3171 3171 3170 3170 3170 3170 3170 3169 3169 3169 3169 3169 3168 3168 3166 3165 3169 3171 3168 3168 3168 3169 3169 3168 3167 3166 3165 3165 3164 3164 3163 3163 3162 3161 3161 3161 3161 3160 3159 3158 3157 3157 3155 3155 3153 3151 3151 3151 3150 3150 3149 3149 3148 3147 3146 3143 3142 3143 3142 3137 3132 3136 3141 3140 3139 3139 3137 3136 3136 3136 3134 3133 3132 3131
3171 3171 3171 3170 3170 3170 3171 3170 3170 3170 3170 3170 3169 3169 3169 3168 3168 3167 3167 3167 3167 3167 3166 3166 3165 3165 3165 3164 3162 3164 3167 3166 3166 3166 3166 3166 3166 3165 3164 3163 3163 3162 3161 3161 3160 3160 3159 3159 3158 3159 3159 3158 3157 3156 3155 3154 3152 3152 3150 3147 3148 3148 3146 3147 3147 3146 3145 3143 3144 3141 3136 3137 3137 3132 3132 3136 3137 3136 3135 3135 3135 3134 3133 3133 3131 3130 3129 3128
3168 3168 3168 3168 3167 3168 3168 3167 3168 3167 3167 3167 3167 3166 3166 3165 3165 3165 3165 3164 3164 3164 3163 3163 3162 3162 3161 3159 3160 3162 3163 3163 3163 3164 3164 3164 3162 3161 3161 3160 3160 3159 3158 3158 3157 3157 3156 3156 3155 3156 3156 3156 3155 3154 3152 3151 3150 3149 3148 3145 3144 3143 3142 3144 3144 3143 3142 3140 3141 3138 3129 3129 3133 3130 3131 3135 3134 3132 3130 3130 3131 3130 3130 3129 3128 3126 3125 3125
3165 3165 3165 3164 3164 3165 3164 3164 3164 3164 3164 3164 3164 3163 3163 3163 3162 3162 3162 3161 3161 3161 3160 3160 3159 3159 3157 3156 3158 3158 3159 3160 3160 3161 3161 3160 3159 3158 3158 3157 3156 3155 3155 3154 3154 3153 3153 3153 3152 3152 3154 3153 3153 3151 3148 3148 3148 3147 3145 3142 3142 3139 3138 3142 3143 3139 3137 3136 3136 3135 3124 3122 3128 3127 3128 3131 3130 3127 3125 3125 3126 3126 3126 3125 3124 3122 3121 3121
3162 3162 3161 3161 3161 3161 3161 3161 3161 3161 3161 3161 3160 3160 3160 3159 3159 3159 3158 3158 3158 3157 3157 3156 3156 3155 3153 3153 3156 3154 3155 3157 3158 3158 3157 3156 3156 3155 3154 3153 3152 3152 3151 3151 3150 3150 3149 3149 3149 3150 3151 3151 3150 3147 3144 3144 3145 3145 3140 3138 3139 3136 3135 3139 3141 3137 3133 3131 3131 3130 3120 3116 3123 3124 3125 3127 3124 3123 3120 3120 3120 3120 3121 3120 3119 3118 3117 3117
3158 3158 3158 3158 3158 3158 3158 3158 3158 3158 3158 3157 3157 3157 3156 3156 3155 3155 3154 3154 3154 3153 3153 3153 3153 3152 3149 3150 3152 3151 3153 3154 3155 3154 3153 3153 3153 3151 3150 3149 3149 3149 3148 3148 3147 3147 3146 3145 3146 3147 3148 3149 3147 3143 3142 3142 3142 3141 3136 3134 3136 3135 3133 3134 3136 3135 3131 3126 3124 3124 3116 3112 3117 3120 3122 3122 3119 3117 3114 3113 3114 3114 3114 3114 3114 3113 3112 3112
3155 3155 3155 3155 3155 3155 3155 3154 3154 3155 3154 3154 3154 3153 3153 3152 3152 3151 3151 3151 3150 3149 3149 3148 3149 3147 3145 3146 3148 3149 3150 3150 3150 3151 3150 3150 3149 3148 3147 3146 3146 3145 3145 3145 3144 3144 3143 3142 3143 3144 3146 3146 3143 3139 3139 3139 3137 3136 3135 3132 3132 3133 3131 3129 3130 3131 3128 3122 3118 3117 3111 3106 3110 3115 3117 3117 3115 3111 3108 3108 3108 3108 3108 3108 3108 3108 3107 3107
3152 3152 3152 3152 3152 3152 3152 3151 3152 3151 3151 3151 3150 3150 3150 3149 3149 3147 3147 3147 3146 3146 3144 3144 3146 3142 3140 3144 3146 3146 3147 3146 3146 3147 3147 3147 3146 3145 3144 3143 3142 3142 3142 3142 3141 3141 3140 3139 3140 3141 3143 3141 3137 3135 3135 3135 3134 3134 3134 3131 3129 3129 3128 3125 3124 3126 3125 3118 3113 3111 3105 3101 3104 3108 3110 3111 3111 3106 3103 3103 3102 3102 3103 3103 3103 3102 3102 3101
3150 3149 3149 3149 3149 3149 3149 3149 3149 3148 3148 3148 3147 3147 3146 3145 3145 3144 3144 3143 3142 3142 3140 3140 3141 3139 3136 3140 3143 3142 3143 3143 3142 3143 3143 3143 3142 3140 3140 3139 3138 3138 3138 3139 3138 3137 3137 3136 3135 3136 3137 3135 3132 3131 3131 3132 3132 3131 3131 3129 3126 3124 3122 3122 3120 3122 3122 3113 3109 3108 3100 3097 3099 3101 3103 3106 3107 3103 3098 3098 3097 3098 3098 3098 3098 3096 3096 3096
3147 3146 3146 3146 3146 3146 3145 3146 3146 3145 3146 3145 3144 3143 3142 3141 3140 3140 3139 3139 3139 3138 3137 3136 3136 3135 3134 3137 3139 3139 3139 3139 3138 3138 3139 3139 3138 3136 3136 3134 3133 3134 3135 3136 3135 3134 3134 3131 3128 3131 3131 3130 3130 3131 3129 3129 3129 3128 3126 3124 3122 3119 3116 3117 3117 3118 3119 3107 3100 3103 3097 3092 3094 3095 3098 3100 3100 3099 3096 3094 3093 3094 3094 3094 3094 3091 3090 3090
3144 3144 3143 3143 3143 3143 3142 3143 3143 3142 3142 3142 3142 3141 3140 3138 3136 3135 3134 3133 3135 3134 3133 3133 3131 3130 3132 3135 3136 3136 3134 3133 3133 3134 3134 3135 3134 3132 3130 3129 3128 3129 3131 3132 3131 3130 3128 3123 3122 3127 3127 3128 3129 3128 3126 3125 3125 3124 3123 3120 3117 3116 3111 3112 3114 3114 3115 3104 3093 3096 3091 3084 3088 3089 3091 3094 3093 3093 3093 3091 3089 3090 3090 3089 3088 3087 3085 3085
3141 3141 3140 3140 3140 3140 3139 3140 3140 3139 3139 3139 3139 3138 3137 3136 3134 3132 3128 3126 3129 3130 3129 3129 3127 3125 3128 3132 3132 3132 3129 3127 3128 3129 3131 3131 3129 3127 3125 3124 3124 3125 3127 3128 3126 3125 3120 3116 3120 3125 3125 3126 3125 3124 3123 3122 3121 3120 3119 3116 3112 3112 3108 3105 3110 3111 3111 3102 3091 3092 3083 3074 3081 3083 3084 3087 3085 3086 3089 3088 3087 3086 3085 3083 3082 3082 3080 3080
3138 3138 3138 3137 3137 3137 3136 3136 3136 3136 3136 3135 3135 3134 3133 3132 3131 3129 3125 3120 3120 3124 3125 3124 3123 3121 3124 3127 3127 3127 3122 3121 3123 3124 3128 3126 3123 3124 3121 3119 3120 3120 3122 3123 3121 3118 3111 3112 3120 3123 3122 3121 3120 3121 3121 3118 3117 3115 3115 3113 3107 3110 3108 3099 3103 3108 3106 3100 3092 3089 3075 3063 3071 3074 3075 3081 3079 3080 3084 3083 3083 3082 3080 3078 3077 3077 3076 3075
3134 3135 3135 3134 3134 3134 3133 3133 3133 3133 3133 3132 3131 3130 3130 3129 3127 3125 3122 3116 3111 3115 3120 3120 3118 3117 3120 3121 3121 3120 3116 3116 3118 3119 3122 3121 3119 3120 3116 3116 3116 3115 3116 3117 3116 3110 3106 3112 3119 3118 3116 3116 3115 3116 3118 3116 3112 3109 3109 3110 3105 3106 3106 3100 3101 3102 3099 3097 3093 3088 3069 3051 3059 3066 3065 3072 3074 3073 3076 3077 3077 3078 3076 3074 3072 3072 3072 3071
3131 3131 3131 3131 3130 3130 3130 3130 3130 3130 3129 3129 3128 3128 3127 3126 3125 3122 3120 3114 3104 3105 3113 3114 3112 3112 3114 3114 3114 3114 3111 3111 3113 3114 3116 3116 3116 3115 3113 3113 3112 3110 3111 3113 3111 3104 3103 3111 3114 3111 3111 3112 3111 3110 3114 3114 3107 3102 3104 3107 3104 3103 3103 3101 3101 3098 3094 3093 3091 3092 3075 3046 3045 3057 3057 3061 3065 3065 3068 3070 3071 3072 3071 3071 3070 3069 3070 3069
3128 3128 3128 3128 3127 3127 3127 3127 3127 3127 3126 3126 3126 3125 3125 3123 3122 3120 3118 3112 3101 3100 3106 3107 3106 3106 3106 3107 3108 3108 3107 3106 3109 3109 3110 3111 3112 3111 3109 3108 3108 3107 3108 3109 3106 3099 3100 3108 3108 3106 3107 3107 3107 3106 3109 3111 3103 3097 3100 3105 3103 3101 3100 3098 3100 3098 3092 3089 3088 3092 3089 3060 3037 3043 3052 3054 3057 3059 3061 3064 3064 3066 3067 3067 3068 3067 3067 3067
3125 3125 3125 3124 3124 3124 3124 3124 3124 3123 3123 3124 3123 3123 3122 3121 3121 3119 3118 3111 3099 3097 3100 3100 3102 3102 3102 3103 3104 3105 3104 3103 3105 3105 3106 3107 3108 3107 3105 3104 3105 3104 3105 3106 3101 3094 3098 3104 3103 3103 3103 3102 3103 3103 3104 3107 3103 3095 3096 3101 3101 3099 3098 3096 3096 3095 3090 3088 3085 3085 3093 3081 3045 3032 3045 3049 3051 3054 3056 3058 3059 3061 3064 3064 3064 3064 3064 3064
3122 3122 3122 3122 3121 3121 3121 3122 3122 3120 3120 3120 3121 3121 3120 3120 3120 3118 3121 3115 3098 3094 3097 3098 3099 3099 3100 3101 3101 3101 3102 3102 3103 3103 3104 3105 3104 3103 3102 3100 3102 3101 3102 3102 3094 3092 3097 3099 3098 3099 3099 3097 3098 3100 3101 3103 3101 3095 3095 3097 3097 3097 3095 3094 3092 3091 3090 3086 3081 3078 3087 3088 3054 3031 3042 3046 3046 3051 3051 3054 3056 3056 3059 3061 3060 3060 3060 3061
3118 3118 3119 3118 3117 3118 3119 3119 3119 3118 3117 3118 3119 3119 3118 3119 3118 3117 3121 3113 3095 3091 3096 3096 3097 3098 3098 3099 3099 3099 3100 3100 3101 3101 3102 3102 3100 3100 3099 3098 3100 3097 3098 3097 3090 3090 3095 3094 3094 3094 3095 3094 3095 3097 3098 3098 3097 3095 3095 3093 3093 3094 3091 3092 3089 3088 3091 3082 3074 3075 3082 3084 3055 3029 3039 3044 3042 3048 3048 3050 3053 3053 3055 3056 3057 3057 3056 3057
3114 3115 3115 3115 3113 3115 3116 3116 3117 3115 3114 3115 3115 3116 3116 3116 3116 3117 3115 3103 3092 3092 3094 3093 3095 3096 3096 3096 3096 3096 3097 3097 3098 3098 3099 3099 3098 3098 3097 3097 3098 3095 3094 3092 3087 3088 3091 3090 3089 3089 3090 3092 3093 3094 3093 3094 3094 3094 3094 3091 3090 3091 3088 3090 3087 3086 3090 3075 3065 3070 3075 3081 3059 3029 3034 3041 3040 3044 3045 3047 3049 3049 3052 3052 3053 3054 3053 3053
3110 3111 3111 3110 3110 3111 3112 3113 3114 3112 3112 3112 3112 3113 3113 3112 3113 3112 3102 3091 3090 3092 3091 3091 3092 3093 3093 3093 3093 3094 3094 3094 3095 3096 3096 3096 3096 3095 3095 3095 3095 3093 3091 3088 3086 3086 3087 3085 3084 3085 3087 3089 3089 3090 3089 3090 3091 3091 3091 3090 3089 3088 3086 3086 3084 3086 3087 3069 3060 3065 3070 3075 3055 3029 3033 3040 3039 3043 3044 3045 3046 3046 3049 3049 3050 3051 3049 3049
3106 3107 3107 3106 3106 3107 3107 3109 3110 3109 3109 3109 3109 3109 3109 3109 3106 3098 3090 3090 3093 3090 3088 3090 3090 3090 3091 3090 3091 3092 3092 3092 3092 3093 3094 3094 3093 3092 3093 3093 3093 3092 3087 3085 3085 3083 3081 3081 3082 3082 3083 3085 3086 3086 3085 3086 3087 3087 3087 3088 3089 3088 3086 3084 3082 3083 3079 3064 3058 3064 3067 3063 3040 3027 3035 3038 3039 3043 3042 3042 3043 3043 3045 3045 3046 3046 3045 3046
3102 3102 3103 3103 3103 3103 3104 3105 3106 3106 3106 3106 3105 3104 3105 3104 3095 3085 3086 3092 3092 3088 3088 3090 3088 3089 3089 3088 3090 3090 3089 3090 3090 3091 3091 3091 3089 3089 3090 3089 3090 3090 3085 3083 3083 3080 3077 3075 3078 3079 3078 3081 3082 3082 3082 3081 3082 3082 3081 3083 3086 3086 3084 3082 3081 3078 3068 3058 3057 3062 3064 3051 3031 3027 3033 3033 3036 3039 3038 3039 3040 3040 3042 3041 3041 3041 3040 3042
3097 3098 3098 3098 3098 3100 3101 3102 3103 3103 3103 3102 3101 3101 3100 3095 3085 3080 3084 3087 3088 3087 3088 3088 3087 3088 3087 3086 3087 3087 3087 3087 3087 3088 3088 3087 3086 3084 3084 3085 3087 3087 3084 3083 3080 3078 3075 3070 3070 3075 3076 3076 3076 3078 3079 3078 3077 3076 3076 3078 3077 3076 3076 3075 3073 3067 3059 3055 3056 3059 3055 3040 3028 3028 3029 3030 3034 3035 3035 3037 3037 3037 3038 3037 3038 3038 3038 3039
3092 3093 3093 3093 3094 3096 3098 3099 3099 3100 3100 3099 3098 3097 3092 3084 3079 3080 3082 3083 3084 3086 3086 3086 3086 3085 3083 3082 3083 3083 3084 3083 3082 3084 3083 3083 3082 3080 3080 3081 3083 3083 3082 3081 3076 3075 3073 3066 3064 3069 3070 3071 3072 3073 3075 3075 3073 3071 3071 3072 3069 3067 3067 3066 3063 3059 3057 3056 3053 3050 3042 3031 3027 3027 3028 3031 3030 3030 3033 3033 3033 3034 3034 3035 3035 3036 3036 3037
3087 3087 3088 3088 3090 3093 3094 3094 3095 3096 3095 3095 3094 3089 3081 3077 3078 3080 3080 3081 3082 3083 3083 3084 3083 3081 3079 3079 3079 3079 3080 3079 3079 3080 3080 3079 3078 3076 3076 3076 3079 3079 3078 3077 3074 3073 3069 3063 3063 3065 3064 3066 3068 3068 3071 3070 3068 3067 3066 3065 3063 3063 3064 3062 3059 3057 3059 3054 3046 3041 3033 3028 3029 3025 3024 3028 3027 3028 3030 3029 3030 3031 3031 3033 3033 3033 3034 3033
3082 3082 3082 3083 3085 3089 3089 3090 3091 3091 3090 3090 3087 3079 3074 3074 3076 3078 3078 3079 3080 3082 3082 3081 3080 3079 3077 3076 3075 3076 3076 3076 3076 3076 3076 3076 3074 3072 3071 3072 3074 3073 3074 3074 3072 3071 3067 3060 3061 3062 3060 3062 3063 3063 3065 3065 3063 3063 3062 3061 3060 3061 3061 3060 3058 3056 3057 3049 3039 3037 3030 3027 3031 3023 3018 3024 3025 3025 3026 3026 3027 3029 3029 3030 3030 3030 3031 3029
3077 3077 3076 3077 3081 3083 3083 3084 3085 3085 3085 3083 3078 3072 3069 3070 3071 3073 3076 3077 3078 3079 3079 3078 3076 3076 3075 3073 3072 3073 3073 3073 3073 3073 3073 3072 3070 3068 3068 3068 3069 3069 3071 3071 3068 3067 3066 3060 3058 3058 3056 3056 3059 3059 3057 3057 3059 3058 3058 3058 3058 3057 3055 3055 3055 3052 3052 3044 3035 3034 3030 3026 3026 3019 3015 3020 3022 3022 3024 3023 3024 3024 3026 3028 3027 3028 3028 3027
3071 3070 3069 3072 3075 3076 3077 3078 3078 3079 3079 3075 3070 3066 3064 3064 3066 3069 3071 3073 3074 3075 3073 3073 3073 3072 3070 3069 3068 3069 3070 3069 3070 3070 3069 3068 3066 3065 3065 3065 3066 3066 3067 3068 3065 3063 3064 3059 3054 3053 3053 3052 3053 3053 3050 3051 3054 3054 3054 3054 3053 3052 3050 3049 3048 3046 3045 3040 3033 3032 3028 3023 3022 3018 3014 3015 3017 3019 3020 3020 3021 3021 3022 3024 3025 3024 3025 3024
3066 3064 3064 3066 3068 3070 3072 3072 3071 3071 3069 3065 3064 3061 3060 3060 3062 3064 3066 3068 3069 3069 3067 3067 3068 3067 3065 3065 3065 3065 3065 3064 3065 3065 3063 3062 3061 3060 3061 3062 3063 3064 3064 3063 3062 3059 3059 3056 3050 3049 3051 3047 3045 3045 3045 3048 3050 3049 3048 3048 3048 3047 3046 3044 3041 3040 3039 3035 3030 3028 3020 3015 3019 3018 3013 3011 3012 3014 3016 3016 3017 3018 3017 3019 3021 3020 3020 3019
3060 3059 3059 3062 3063 3063 3066 3065 3063 3063 3060 3058 3058 3057 3057 3058 3058 3059 3061 3062 3062 3063 3063 3062 3063 3062 3061 3061 3060 3060 3060 3059 3059 3059 3056 3056 3056 3055 3056 3058 3060 3061 3060 3058 3058 3056 3055 3052 3048 3047 3046 3041 3039 3042 3044 3045 3045 3044 3042 3042 3042 3043 3043 3041 3035 3033 3033 3027 3023 3021 3010 3006 3015 3018 3012 3010 3010 3009 3011 3012 3011 3012 3013 3014 3014 3014 3013 3013
3054 3053 3054 3057 3057 3057 3059 3057 3056 3056 3053 3051 3052 3052 3054 3055 3054 3054 3055 3056 3056 3057 3058 3057 3057 3057 3056 3056 3055 3056 3056 3053 3052 3052 3050 3048 3050 3050 3051 3053 3055 3056 3056 3053 3052 3052 3051 3047 3042 3040 3039 3036 3036 3039 3040 3038 3038 3038 3036 3036 3038 3037 3037 3035 3027 3025 3025 3019 3016 3015 3004 2999 3009 3014 3011 3010 3010 3008 3006 3006 3005 3005 3007 3008 3008 3008 3007 3006
3048 3049 3050 3051 3051 3053 3053 3050 3050 3049 3046 3046 3048 3049 3050 3050 3049 3049 3050 3050 3051 3052 3052 3051 3051 3051 3050 3051 3051 3051 3051 3047 3044 3045 3044 3043 3043 3044 3047 3049 3050 3050 3050 3047 3046 3047 3045 3040 3035 3033 3032 3031 3031 3033 3033 3032 3033 3031 3029 3032 3032 3030 3030 3026 3020 3021 3020 3015 3015 3011 2999 2995 3002 3007 3008 3008 3008 3006 3003 3002 3002 3001 3001 3002 3002 3002 3000 2999
3043 3044 3045 3046 3047 3048 3046 3043 3043 3042 3041 3043 3044 3043 3045 3044 3043 3044 3044 3044 3045 3046 3046 3045 3046 3046 3045 3047 3046 3046 3046 3042 3038 3038 3040 3038 3037 3039 3042 3045 3044 3044 3044 3042 3042 3041 3038 3035 3033 3032 3030 3027 3025 3025 3025 3025 3025 3023 3022 3026 3024 3023 3025 3021 3019 3020 3014 3010 3013 3005 2993 2994 2999 3002 3005 3005 3004 3003 3000 2998 2997 2997 2997 2997 2997 2997 2993 2990
3038 3039 3040 3041 3042 3042 3040 3039 3040 3039 3039 3040 3039 3039 3040 3038 3037 3039 3039 3039 3040 3041 3040 3039 3041 3041 3040 3041 3040 3039 3040 3039 3035 3034 3034 3034 3034 3035 3037 3038 3038 3038 3038 3037 3037 3035 3031 3029 3030 3029 3027 3024 3021 3018 3018 3019 3019 3017 3017 3019 3018 3019 3020 3017 3016 3014 3005 3002 3005 2996 2987 2990 2996 2998 3000 3001 3000 2999 2998 2995 2992 2991 2991 2993 2994 2990 2983 2981
3034 3033 3034 3035 3035 3035 3034 3035 3037 3035 3035 3036 3034 3034 3035 3032 3032 3035 3034 3033 3034 3035 3035 3034 3036 3036 3034 3035 3034 3032 3033 3035 3032 3030 3029 3030 3030 3030 3031 3032 3032 3032 3032 3032 3031 3029 3024 3022 3023 3022 3019 3018 3016 3013 3016 3017 3015 3014 3014 3014 3015 3015 3014 3013 3010 3003 3000 2997 2991 2989 2988 2986 2989 2995 2994 2994 2995 2994 2993 2992 2990 2988 2987 2988 2985 2978 2973 2975
3029 3029 3030 3030 3030 3029 3028 3030 3031 3029 3031 3032 3029 3029 3029 3028 3029 3030 3029 3028 3029 3030 3030 3029 3030 3031 3028 3029 3029 3027 3027 3029 3028 3026 3025 3025 3025 3025 3026 3027 3026 3026 3027 3026 3025 3023 3019 3014 3016 3016 3012 3013 3013 3011 3013 3013 3009 3010 3010 3009 3011 3010 3009 3008 3001 2994 2998 2993 2978 2984 2991 2981 2981 2990 2989 2988 2990 2989 2988 2989 2988 2986 2984 2979 2973 2967 2967 2969
3025 3025 3026 3026 3024 3024 3024 3024 3026 3025 3026 3027 3025 3024 3025 3024 3024 3025 3025 3024 3024 3025 3025 3022 3023 3024 3023 3025 3025 3022 3022 3023 3022 3022 3022 3020 3020 3019 3020 3021 3020 3020 3021 3020 3019 3018 3014 3008 3010 3010 3007 3008 3010 3008 3009 3008 3003 3003 3004 3002 3003 3003 3001 2999 2992 2990 2995 2986 2973 2980 2985 2976 2978 2985 2984 2982 2983 2981 2981 2982 2980 2978 2975 2972 2968 2964 2962 2959
3020 3020 3021 3021 3019 3020 3020 3020 3021 3020 3021 3022 3021 3020 3020 3020 3019 3021 3021 3020 3019 3020 3020 3017 3017 3018 3018 3019 3019 3018 3018 3019 3017 3017 3017 3015 3015 3014 3013 3014 3015 3015 3015 3014 3014 3014 3010 3004 3006 3006 3002 3002 3004 3003 3003 3002 2998 2997 2997 2996 2996 2995 2994 2990 2986 2986 2987 2978 2972 2975 2975 2973 2977 2976 2973 2974 2973 2971 2972 2973 2972 2970 2968 2967 2965 2961 2957 2954
3015 3014 3015 3015 3014 3016 3016 3015 3016 3015 3016 3018 3016 3015 3017 3016 3016 3017 3018 3018 3016 3015 3016 3013 3011 3012 3013 3013 3014 3013 3014 3014 3013 3013 3012 3011 3011 3010 3009 3009 3010 3010 3009 3008 3008 3009 3006 3001 3001 3001 2996 2995 2998 2998 2997 2997 2994 2991 2990 2991 2990 2988 2985 2983 2982 2982 2978 2972 2970 2971 2968 2968 2969 2966 2965 2966 2965 2964 2965 2966 2965 2963 2960 2959 2958 2955 2954 2951
3009 3009 3009 3009 3009 3011 3011 3010 3012 3011 3010 3012 3011 3010 3013 3013 3012 3012 3012 3012 3012 3011 3012 3010 3007 3007 3008 3008 3009 3009 3010 3010 3008 3007 3007 3006 3006 3007 3006 3006 3007 3006 3005 3005 3004 3004 3002 2997 2997 2998 2992 2989 2994 2994 2992 2992 2990 2987 2986 2986 2984 2981 2979 2978 2977 2976 2973 2969 2967 2966 2963 2960 2959 2959 2960 2960 2959 2958 2958 2957 2957 2954 2952 2952 2950 2948 2947 2945
3004 3003 3004 3003 3002 3005 3005 3004 3006 3006 3004 3006 3006 3006 3008 3008 3007 3007 3007 3007 3007 3006 3007 3006 3004 3003 3003 3004 3005 3005 3005 3005 3002 3001 3002 3001 3001 3002 3001 3002 3003 3002 3001 3001 3000 2999 2999 2995 2994 2996 2989 2984 2988 2989 2987 2988 2984 2978 2978 2979 2979 2978 2976 2973 2972 2971 2969 2966 2962 2959 2957 2954 2954 2955 2955 2954 2953 2953 2951 2950 2948 2946 2946 2945 2943 2941 2940 2938